Voltar ao catálogo

LEMUR 2 PETER

LostCiênciaLEO
NORAD 40935·PAYLOAD·🇺🇸 United States

Lançado Sep 28, 2015 de Satish Dhawan Space Centre

Loading…

Próximas Passagens (próximas 24 horas)

TLE

ObsoletoSource: Space-Track

Época: Jan 6, 2024, 08:13 UTC

1 40935U 15052F   24006.34278325  .00004647  00000-0  47851-3 0  9999
2 40935   6.0047  44.3862 0010558 341.6801  18.2947 14.82800071447703

Acompanhe LEMUR 2 PETER em tempo real com AllMySat

Download on the App Store